Wetbulb
40.31 35.32 32.59 36.15 37.21 38.44 36.95 34.93 34.44 38.14 41.46 38.90 37.87 37.90 39.82 41.88 41.59 41.66 42.77 42.88 43.67 44.76 47.32 49.76 50.59 50.97 53.53 56.11 56.54 60.24 63.11 63.50 65.49 65.74 65.15 64.83 65.90 65.67 66.26 67.13 68.05 68.16 68.80 70.50
36.40 33.09 39.07 40.66 40.43 38.65 37.29 35.27 35.00 38.42 40.90 38.37 37.98 37.30 39.66 40.74 41.02 41.83 42.98 43.43 43.69 43.57 45.03 47.94 49.66 52.65 54.59 55.93 56.41 57.11 60.98 63.15 64.33 63.44 61.09 60.83 61.24 64.60 65.43 66.73 67.40 67.20 67.48 67.22
34.43 38.33 42.75 41.07 39.16 37.89 36.99 34.88 35.35 36.08 39.01 38.89 36.39 34.40 37.38 40.51 41.44 43.20 43.67 44.20 44.38 44.31 44.65 45.02 48.07 51.46 53.52 54.65 55.46 56.45 58.35 60.92 61.25 60.13 57.50 56.86 57.92 58.32 60.67 62.49 65.10 67.74 67.87 66.00
36.64 41.32 40.26 38.78 37.99 38.64 33.36 39.45 39.30 38.03 34.42 29.57 36.58 29.82 33.75 37.91 39.05 40.98 42.32 42.23 43.00 43.80 44.85 44.90 46.40 49.26 52.87 55.10 55.29 56.58 57.39 57.64 58.62 58.32 56.80 56.36 56.38 56.48 55.60 56.33 57.56 61.28 67.52 68.10
37.57 38.32 38.06 37.26 38.84 40.37 37.13 41.04 38.57 38.02 33.32 29.09 31.86 27.14 31.76 36.82 36.57 39.68 40.58 41.94 43.04 43.72 44.21 45.45 46.02 48.75 52.53 54.43 55.35 56.27 55.48 54.54 56.24 57.29 56.66 55.69 54.83 55.19 55.97 57.11 57.47 56.82 58.20 60.78
40.18 42.20 41.04 40.57 42.64 41.66 42.21 38.34 35.90 32.32 29.72 25.04 31.60 30.22 31.76 33.50 37.25 38.60 41.17 43.16 44.89 45.34 45.27 46.97 49.28 48.57 51.64 54.09 52.76 52.27 52.06 51.95 52.96 55.43 55.69 55.59 55.09 55.14 55.23 55.46 55.92 56.08 57.35 59.19
39.35 39.70 41.56 42.99 38.18 40.58 37.86 30.73 24.02 23.21 23.41 26.72 33.52 29.98 32.80 37.05 40.28 41.13 41.17 43.15 44.19 44.10 45.50 47.73 46.93 48.75 51.95 51.95 51.67 51.83 51.53 51.01 51.82 52.22 53.43 53.89 53.84 53.58 54.21 54.54 54.85 54.66 55.45 56.38
31.18 31.81 40.15 44.13 39.54 36.47 36.17 34.23 27.36 21.58 21.50 27.49 33.82 27.57 32.50 40.01 42.29 42.91 44.01 43.98 44.64 44.08 44.85 47.16 48.36 49.45 50.25 49.16 49.29 51.41 50.81 50.55 51.59 52.43 52.22 52.73 52.90 52.94 53.21 53.82 54.95 55.87 56.49 57.24
31.34 33.21 42.96 43.97 44.23 41.89 37.32 33.56 36.92 31.15 29.71 26.32 28.74 33.07 38.83 41.25 41.37 42.84 43.30 43.90 43.14 43.92 44.26 46.76 47.62 48.37 49.74 50.51 51.31 51.83 51.83 50.69 52.26 53.29 52.81 52.94 53.47 53.21 53.98 54.63 54.84 55.65 55.87 57.45
36.42 30.15 39.60 42.21 44.10 43.96 40.43 41.42 30.48 30.11 26.06 23.47 27.31 29.41 30.00 35.35 37.85 40.88 41.54 41.53 43.01 43.87 43.77 44.76 45.97 48.25 49.81 48.96 48.18 48.64 51.04 51.70 52.14 53.26 53.69 53.81 54.74 55.40 55.38 54.62 54.54 54.56 55.03 56.12
38.11 33.24 34.40 39.23 37.86 36.90 37.33 35.48 36.82 35.50 32.65 27.67 25.75 27.08 34.98 36.90 38.08 39.23 40.76 42.75 43.67 44.05 44.40 44.44 45.63 46.77 48.28 48.06 49.11 48.82 49.49 50.70 50.47 51.74 53.00 53.34 54.29 55.67 55.40 54.30 54.35 54.33 54.48 55.46
41.36 36.60 31.11 34.87 40.66 43.07 40.86 37.07 37.04 31.33 29.71 32.62 30.86 27.14 39.89 38.66 40.66 42.01 42.39 45.03 46.20 46.78 46.24 46.36 45.48 47.43 48.45 48.26 48.26 47.10 50.28 50.83 51.80 52.40 52.70 53.77 54.63 55.41 54.97 55.00 54.70 54.71 54.77 55.29
39.43 33.96 28.42 30.41 35.01 39.20 36.75 38.19 37.15 35.55 33.36 26.55 25.05 26.58 40.11 39.73 40.85 40.79 40.52 42.75 45.08 47.07 47.65 48.33 45.99 45.47 47.24 46.93 47.48 47.25 46.38 48.93 50.43 50.88 50.47 52.38 53.91 53.54 53.11 54.46 54.99 54.35 55.43 54.96
41.98 35.72 33.54 29.03 32.16 36.01 33.95 36.19 37.41 35.49 29.95 28.56 29.16 30.71 34.89 37.16 38.43 40.01 41.91 44.63 45.86 46.75 47.15 47.35 44.27 45.12 45.61 46.36 46.78 47.39 47.52 46.98 48.39 50.80 51.26 51.37 52.84 53.62 53.84 53.58 53.31 52.95 54.32 54.45
38.36 31.33 33.05 34.65 35.49 35.67 35.32 34.71 34.68 32.16 32.23 27.53 30.50 30.35 33.25 37.95 38.76 40.97 42.58 44.89 45.67 46.07 47.11 47.00 45.96 45.10 45.53 46.12 47.19 48.52 49.21 50.08 48.61 47.54 49.94 51.20 52.51 53.53 54.21 53.59 53.58 53.17 52.88 54.10
36.20 28.74 33.55 30.68 34.19 33.56 31.44 34.03 33.81 33.22 32.59 30.88 31.91 31.61 38.47 41.32 41.93 41.37 42.17 42.43 43.03 43.59 44.65 45.56 46.50 46.43 45.93 46.28 47.69 48.22 48.39 48.85 49.31 49.33 48.66 50.11 50.72 51.00 51.20 51.82 51.99 52.33 51.99 53.15
32.03 29.74 28.22 25.45 31.01 30.81 25.72 30.50 32.68 32.88 36.15 34.85 29.86 34.90 41.15 40.07 39.09 39.50 40.50 42.02 41.46 42.40 42.97 43.24 43.71 44.39 44.85 45.43 46.37 46.45 47.42 48.01 48.08 48.38 49.51 50.02 50.13 49.95 49.87 51.06 50.95 51.06 50.64 51.24
30.98 29.34 28.26 24.97 27.31 20.33 30.05 39.75 39.39 37.47 38.69 40.05 39.06 37.74 37.69 38.45 39.94 38.92 40.71 40.69 39.60 40.26 40.50 41.32 42.07 42.74 43.77 44.72 45.53 46.72 46.80 47.28 47.66 47.69 48.70 49.70 49.64 49.76 50.46 50.12 50.39 50.47 50.71 50.11
35.27 30.64 26.51 23.69 22.28 28.09 32.17 38.78 36.89 34.89 34.92 38.85 37.09 36.64 36.83 37.90 36.64 35.94 39.96 39.60 39.17 39.88 40.88 41.62 42.40 42.40 43.26 42.90 44.44 45.76 45.95 46.35 46.56 47.15 47.83 48.95 49.82 49.32 49.42 49.58 50.20 50.57 50.51 50.63
36.12 34.30 28.94 22.82 22.96 18.51 30.15 39.23 41.97 40.79 31.04 38.23 36.39 33.73 34.07 35.01 29.04 32.79 38.11 39.70 40.05 41.60 42.62 40.13 41.07 41.79 40.97 40.90 42.33 42.70 43.82 45.10 44.69 46.01 47.13 48.26 48.73 48.82 48.80 48.81 49.17 50.46 51.06 51.31
31.30 27.34 26.39 28.54 26.39 27.90 38.46 39.57 41.28 29.35 27.98 35.51 34.69 34.57 34.07 33.38 35.11 38.00 40.56 40.29 41.78 41.78 40.78 40.72 40.87 39.32 39.78 41.55 41.95 41.48 42.47 43.26 45.05 45.81 46.19 46.40 46.85 46.94 47.50 47.72 48.48 49.26 50.05 50.76
27.39 29.79 28.14 30.08 27.85 24.64 40.20 37.21 31.01 32.81 35.38 36.22 35.87 35.69 35.25 36.87 38.62 39.56 39.49 38.88 40.86 40.19 39.95 40.54 39.83 39.34 40.87 41.42 40.44 39.31 39.28 41.92 43.63 44.64 44.87 45.23 45.88 46.54 47.23 46.64 47.13 48.50 49.55 49.77
27.77 33.15 27.33 31.50 28.45 35.58 36.96 35.99 37.30 37.10 37.29 37.04 37.26 37.24 38.14 37.98 38.44 37.96 37.90 39.40 37.92 36.79 38.72 40.55 39.12 38.57 39.21 40.57 41.00 40.05 41.24 42.74 42.93 42.73 42.99 43.61 44.76 45.31 45.61 45.58 46.33 46.96 47.72 47.61
33.92 36.97 32.69 34.54 34.31 35.57 36.32 38.12 38.43 39.14 39.50 40.00 39.33 39.23 39.72 38.38 38.75 38.92 36.46 36.50 37.02 37.60 37.43 38.37 38.27 38.00 38.69 40.78 41.53 41.74 42.43 43.25 43.13 42.49 42.87 43.90 44.29 45.18 46.10 46.82 47.14 46.37 46.58 46.73
32.73 35.27 31.63 31.99 32.80 35.27 37.32 37.95 38.91 40.24 39.56 39.25 39.72 40.12 39.66 39.96 39.20 38.01 36.16 35.60 36.97 36.81 37.34 38.19 37.61 37.81 38.55 40.35 41.12 42.31 42.99 43.85 42.98 43.35 43.68 43.92 44.90 45.26 45.53 46.40 46.85 47.17 48.08 47.10
38.04 34.02 25.40 25.93 32.59 34.11 35.46 38.10 39.81 38.62 38.28 39.21 39.21 39.45 40.90 39.51 39.30 37.18 35.96 36.06 35.92 36.08 36.98 37.09 37.54 37.88 38.77 40.20 41.24 42.69 44.27 44.94 44.83 44.40 44.86 45.13 45.81 46.35 46.98 46.65 46.37 44.63 45.12 44.17
MSLP
1010.28 1011.24 1011.48 1011.64 1011.93 1011.82 1011.97 1011.92 1011.40 1010.21 1009.09 1009.14 1008.51 1008.11 1007.72 1007.32 1006.99 1006.88 1006.65 1006.48 1005.98 1005.59 1005.09 1004.77 1004.42 1004.29 1004.72 1005.04 1005.01 1005.05 1005.28 1005.80 1006.05 1006.45 1006.99 1007.39 1007.71 1007.70 1007.81 1008.06 1008.11 1008.77 1008.42 1007.68
1011.03 1010.96 1010.63 1010.96 1011.34 1011.60 1011.60 1011.56 1010.96 1010.00 1009.07 1009.10 1008.25 1007.93 1007.61 1007.20 1006.88 1006.73 1006.70 1006.46 1006.12 1005.79 1005.27 1004.77 1004.66 1004.61 1004.55 1004.65 1004.91 1005.30 1005.32 1005.38 1005.76 1006.29 1006.91 1007.16 1007.41 1007.67 1007.85 1008.17 1008.40 1008.35 1007.99 1007.76
1010.77 1009.99 1009.87 1010.37 1010.30 1010.76 1010.59 1010.73 1010.30 1009.97 1009.03 1008.70 1008.40 1007.99 1007.52 1007.00 1006.68 1006.37 1006.03 1005.81 1005.66 1005.53 1005.26 1004.61 1004.70 1004.65 1004.68 1004.65 1004.62 1004.80 1005.02 1005.23 1005.54 1006.00 1006.57 1007.10 1007.53 1007.93 1008.05 1007.97 1007.84 1007.70 1007.74 1007.73
1010.26 1009.14 1009.52 1009.55 1009.72 1009.76 1009.85 1009.44 1009.41 1009.53 1009.60 1009.38 1008.72 1007.34 1007.55 1007.06 1006.63 1006.29 1005.79 1005.66 1005.23 1004.88 1004.45 1004.25 1004.19 1004.35 1004.21 1004.29 1004.53 1004.55 1004.81 1005.02 1005.22 1005.47 1006.20 1006.66 1007.20 1007.75 1007.59 1007.79 1008.09 1007.85 1007.74 1007.87
1008.77 1008.52 1008.63 1008.82 1008.38 1008.51 1008.69 1008.50 1009.10 1009.31 1009.54 1009.54 1009.45 1008.95 1007.13 1006.74 1006.49 1005.78 1005.50 1005.09 1004.61 1004.28 1004.07 1003.73 1003.51 1003.26 1003.10 1003.58 1003.75 1004.18 1004.40 1004.93 1005.24 1005.36 1005.91 1006.60 1007.10 1007.17 1007.46 1007.60 1007.44 1007.57 1008.31 1008.45
1008.04 1007.76 1007.94 1007.36 1007.29 1007.64 1008.00 1008.47 1008.92 1009.37 1009.99 1009.86 1009.43 1009.02 1007.33 1006.97 1005.99 1005.17 1004.55 1004.26 1004.03 1003.96 1003.78 1003.54 1002.85 1002.20 1002.26 1002.74 1003.53 1003.99 1004.28 1004.65 1004.95 1005.09 1005.56 1006.04 1006.58 1006.87 1007.09 1007.22 1007.45 1007.60 1007.63 1007.73
1007.90 1007.69 1007.29 1007.09 1007.23 1007.22 1007.87 1008.90 1010.20 1010.37 1010.66 1009.43 1008.94 1008.35 1007.00 1006.28 1005.47 1004.84 1004.36 1003.97 1003.52 1003.53 1003.31 1002.85 1002.40 1002.22 1001.91 1001.93 1002.82 1003.43 1003.59 1004.26 1004.71 1004.69 1005.03 1005.55 1006.16 1006.69 1007.02 1007.25 1007.44 1007.52 1007.47 1007.39
1008.21 1007.64 1006.95 1006.52 1006.71 1007.00 1007.52 1008.49 1009.99 1009.94 1010.45 1009.67 1009.30 1007.92 1006.61 1005.89 1005.16 1004.53 1004.22 1004.02 1003.59 1003.50 1002.77 1002.46 1002.43 1002.66 1002.43 1003.15 1003.07 1002.79 1003.38 1004.09 1004.28 1004.29 1004.68 1005.29 1005.76 1006.22 1006.51 1006.76 1006.99 1007.09 1007.22 1007.16
1008.29 1007.63 1006.83 1006.55 1006.39 1006.70 1007.33 1008.12 1008.63 1009.64 1010.10 1009.73 1009.14 1007.91 1006.64 1005.82 1005.84 1005.31 1005.15 1004.58 1004.07 1003.18 1002.86 1002.07 1002.16 1002.48 1002.22 1002.89 1002.88 1003.14 1003.48 1003.93 1003.87 1003.93 1004.26 1004.83 1005.20 1005.73 1005.96 1006.07 1006.34 1006.58 1006.61 1006.72
1008.79 1008.52 1007.81 1007.17 1006.75 1006.63 1007.08 1007.88 1009.20 1010.46 1010.95 1010.71 1009.26 1008.55 1007.53 1006.83 1006.46 1005.92 1005.59 1005.40 1005.14 1004.34 1003.61 1002.16 1001.99 1002.00 1001.96 1002.24 1003.03 1003.40 1003.46 1002.96 1003.03 1003.52 1003.76 1004.04 1004.53 1004.89 1005.19 1005.56 1006.11 1006.25 1006.37 1006.63
1009.10 1009.61 1008.93 1008.22 1007.89 1007.47 1007.81 1008.46 1009.90 1011.16 1011.78 1011.27 1010.33 1008.31 1007.08 1006.74 1006.43 1006.03 1005.68 1005.29 1005.11 1005.04 1004.55 1003.29 1002.38 1002.34 1002.10 1002.16 1002.26 1002.84 1003.36 1003.49 1003.07 1003.07 1003.08 1003.58 1003.99 1004.34 1004.86 1005.29 1005.38 1005.65 1005.74 1005.99
1009.59 1009.71 1009.79 1009.02 1008.17 1007.73 1007.87 1008.70 1009.69 1011.29 1011.77 1011.47 1010.92 1008.64 1007.24 1006.88 1006.64 1006.29 1005.79 1005.17 1004.46 1004.16 1004.01 1003.67 1003.38 1002.32 1001.82 1001.83 1001.99 1002.02 1002.37 1002.84 1003.02 1003.13 1002.49 1002.92 1003.25 1003.66 1004.21 1004.54 1004.62 1004.89 1005.23 1005.34
1010.44 1010.59 1010.62 1009.51 1008.78 1008.37 1008.76 1009.43 1010.41 1011.48 1012.02 1011.61 1011.17 1009.16 1007.59 1007.31 1006.91 1006.33 1005.84 1005.17 1004.71 1004.20 1003.95 1003.58 1003.04 1002.73 1001.93 1001.53 1001.25 1001.69 1002.03 1002.13 1002.09 1002.60 1002.76 1003.43 1002.94 1002.97 1003.38 1003.63 1003.88 1004.24 1004.45 1004.67
1011.53 1011.84 1011.68 1011.00 1010.36 1009.99 1009.90 1009.86 1010.32 1010.98 1011.50 1010.86 1010.37 1008.96 1008.27 1007.60 1006.98 1006.20 1005.80 1005.36 1004.63 1004.36 1004.31 1003.67 1003.23 1002.36 1002.08 1002.09 1001.83 1001.67 1001.70 1001.73 1001.76 1001.68 1001.79 1001.64 1002.07 1002.81 1002.17 1002.45 1002.95 1003.38 1003.52 1003.93
1012.11 1012.16 1011.67 1011.02 1010.42 1010.08 1009.83 1009.69 1009.93 1010.16 1010.20 1010.38 1009.42 1009.29 1008.68 1008.41 1007.82 1007.09 1006.41 1005.92 1005.12 1004.58 1004.40 1003.76 1003.49 1002.89 1002.69 1002.30 1002.10 1001.82 1001.64 1001.62 1001.81 1001.66 1001.35 1000.89 1000.96 1000.99 1001.87 1001.70 1001.84 1002.23 1002.72 1002.98
1011.60 1011.79 1011.53 1010.92 1010.39 1010.00 1009.57 1009.23 1009.27 1009.31 1009.22 1009.20 1009.09 1009.14 1009.05 1008.50 1008.02 1007.47 1006.90 1006.17 1005.64 1005.14 1004.69 1004.23 1003.77 1003.52 1002.99 1002.34 1002.00 1001.62 1001.55 1001.23 1000.93 1001.01 1000.89 1000.76 1000.60 1000.56 1000.90 1001.40 1001.53 1001.71 1001.93 1002.29
1011.60 1012.02 1012.20 1011.37 1010.58 1010.25 1009.55 1008.70 1008.68 1008.73 1008.89 1009.09 1009.32 1009.29 1008.90 1008.55 1008.16 1007.57 1007.08 1006.48 1006.17 1005.74 1005.26 1004.76 1004.48 1004.06 1003.61 1003.19 1002.88 1002.27 1001.48 1001.08 1000.92 1001.03 1000.82 1000.20 1000.45 1000.43 1000.42 1000.30 1000.61 1000.92 1001.18 1001.51
1011.25 1012.05 1012.48 1011.94 1011.39 1010.61 1009.32 1008.87 1008.84 1009.06 1009.13 1009.32 1009.46 1009.75 1009.74 1009.18 1008.36 1007.86 1007.35 1006.69 1006.40 1006.14 1005.78 1005.40 1004.95 1004.21 1003.90 1003.44 1002.87 1002.27 1001.69 1001.13 1000.74 1000.28 999.82 999.64 999.72 999.69 999.65 999.80 999.82 999.90 1000.07 1000.37
1010.59 1011.77 1012.23 1012.40 1012.07 1010.51 1009.28 1009.23 1009.37 1009.77 1009.66 1009.92 1010.22 1010.05 1009.59 1009.22 1008.54 1006.77 1006.70 1006.73 1006.49 1006.06 1005.83 1005.45 1005.15 1004.68 1003.97 1003.47 1002.95 1002.09 1001.31 1000.66 1000.08 999.43 999.11 998.84 998.87 998.95 998.83 998.81 998.80 998.96 999.21 999.34
1011.02 1011.72 1012.58 1012.69 1012.33 1011.07 1009.85 1009.67 1009.59 1009.72 1009.69 1010.01 1010.43 1010.45 1009.97 1009.52 1008.67 1006.84 1006.88 1006.77 1006.03 1005.59 1005.00 1004.80 1004.32 1003.64 1003.27 1002.58 1002.20 1001.44 1000.43 999.64 998.97 998.57 998.06 997.89 997.84 997.84 997.86 997.82 997.80 997.99 998.11 998.03
1011.41 1012.06 1012.32 1012.32 1012.01 1010.93 1010.17 1009.94 1009.80 1010.29 1010.49 1010.11 1010.26 1010.12 1009.81 1009.22 1008.38 1007.06 1006.41 1005.76 1005.30 1004.38 1004.29 1004.10 1003.46 1002.93 1002.21 1001.65 1001.03 1000.14 999.38 998.43 998.03 997.73 997.44 997.14 996.85 996.76 996.65 996.56 996.65 996.84 996.85 996.92
1011.43 1011.91 1012.00 1012.04 1011.77 1011.08 1010.29 1010.17 1010.45 1010.37 1010.03 1010.26 1010.16 1009.76 1009.13 1008.32 1007.30 1006.48 1005.95 1005.26 1004.16 1003.59 1003.23 1002.70 1002.09 1001.57 1000.94 1000.33 999.91 998.93 998.18 997.78 997.18 996.82 996.29 995.78 995.38 995.17 995.06 995.10 995.10 995.13 995.10 995.14
1011.54 1011.61 1012.03 1011.79 1011.13 1010.66 1010.46 1010.55 1010.18 1010.25 1010.28 1009.91 1009.67 1009.16 1008.34 1007.27 1006.46 1006.03 1004.92 1004.17 1003.88 1003.09 1002.35 1001.71 1001.08 1000.32 999.78 999.09 998.60 997.62 996.78 996.47 995.99 995.47 994.88 994.42 994.09 993.74 993.55 993.59 993.64 993.66 993.70 993.79
1011.52 1011.30 1011.63 1011.59 1011.17 1010.90 1010.39 1010.08 1010.21 1010.09 1009.87 1009.52 1009.14 1008.53 1007.58 1006.72 1005.99 1005.09 1004.47 1003.59 1002.90 1002.01 1001.50 1000.86 1000.10 999.34 998.46 997.94 997.35 996.55 995.73 995.08 994.58 994.09 993.51 993.00 992.77 992.48 992.29 992.26 992.26 992.26 992.17 992.29
1012.03 1011.83 1012.07 1011.74 1011.26 1011.08 1010.48 1010.26 1010.16 1009.67 1009.35 1008.86 1008.38 1007.72 1006.83 1005.87 1004.90 1004.22 1003.64 1002.98 1002.09 1001.36 1000.51 999.88 999.14 998.26 997.26 996.48 995.70 994.91 994.26 993.73 993.11 992.38 991.62 991.09 990.53 990.08 989.78 989.40 989.29 989.62 989.96 990.43
1011.70 1012.02 1012.32 1012.27 1011.84 1011.82 1010.86 1010.26 1009.99 1009.49 1008.99 1008.45 1007.66 1006.73 1006.12 1005.48 1004.26 1003.85 1003.06 1002.40 1001.65 1000.59 999.94 998.93 998.15 997.26 995.99 995.10 994.28 993.41 992.78 992.14 991.34 990.29 989.16 988.47 988.21 987.64 987.08 986.81 986.77 987.15 987.66 988.51
Wind_Speed
1 3 6 10 8 7 4 4 9 12 15 5 8 8 10 8 6 8 9 9 8 7 8 8 7 5 3 3 8 8 9 7 5 4 4 2 4 2 2 4 6 7 7 12
3 7 11 6 6 7 9 11 13 12 13 6 10 10 10 6 5 5 7 8 9 6 8 9 6 5 7 7 8 6 6 8 6 4 3 3 3 2 3 4 6 7 5 4
8 11 4 6 7 6 8 6 8 13 6 5 4 6 6 5 4 7 7 8 8 10 11 8 8 10 8 9 11 12 10 9 8 7 4 3 2 2 2 2 2 4 6 5
6 12 10 10 7 6 7 8 10 8 3 8 5 17 5 7 9 6 9 10 11 12 10 8 8 9 13 15 6 8 9 9 7 9 6 6 5 4 2 3 3 1 4 4
11 6 8 6 11 7 10 8 9 9 6 1 4 6 6 6 7 13 9 11 12 11 9 10 10 14 15 11 13 11 11 8 7 8 7 6 4 4 3 2 4 2 6 6
13 1 7 12 13 7 2 4 4 4 1 6 8 10 7 7 9 7 7 9 10 8 9 10 14 16 11 11 8 8 9 8 9 9 9 9 8 5 2 2 3 3 2 1
15 12 5 4 6 7 3 6 4 5 3 12 5 8 8 6 10 11 13 14 10 8 7 6 8 7 10 17 14 10 10 8 8 8 7 7 8 7 6 5 3 3 2 1
4 9 6 2 8 9 8 8 5 7 6 12 4 7 5 5 10 11 10 9 8 9 7 5 4 2 5 0 0 7 8 7 8 8 9 7 8 5 5 6 5 4 4 4
2 5 4 6 1 3 2 4 6 4 2 7 5 7 6 4 9 8 12 16 15 10 5 8 7 5 6 7 11 10 8 8 9 10 7 8 7 7 8 8 5 4 5 4
3 5 8 3 6 5 6 1 3 3 5 8 5 4 6 6 7 8 12 10 11 12 9 5 4 4 5 7 3 4 7 14 12 12 10 9 10 10 8 6 8 7 6 5
4 5 5 3 6 6 4 2 3 2 4 4 5 6 6 5 5 6 8 9 7 10 11 6 2 4 6 3 6 8 7 8 8 10 10 8 9 10 8 8 8 9 6 8
2 5 6 10 8 8 6 2 5 4 3 3 3 7 7 8 6 6 11 12 15 11 9 11 9 7 5 6 6 7 10 11 10 10 9 12 11 11 9 10 10 8 9 7
5 3 4 7 3 3 6 2 4 3 1 6 5 6 3 7 11 10 9 8 9 8 18 17 10 8 6 5 5 7 7 9 8 6 7 8 10 11 12 13 12 9 10 9
8 4 6 4 6 3 7 10 6 7 4 5 8 17 14 14 14 13 8 8 7 8 13 17 8 7 6 7 6 4 4 5 7 11 12 14 14 14 15 15 13 13 12 11
3 5 9 10 12 9 12 12 12 12 11 9 14 14 8 9 11 7 6 9 12 10 6 6 6 6 6 7 7 3 5 5 4 7 8 12 13 14 14 13 14 13 11 13
6 6 5 14 13 14 16 16 13 14 15 11 6 6 1 6 7 8 8 11 10 9 10 12 12 12 11 10 12 9 7 6 4 5 6 6 6 7 7 8 8 10 11 12
5 2 1 4 3 4 6 5 2 3 3 1 3 2 9 11 12 11 12 13 8 9 12 14 14 13 13 13 13 15 11 7 6 6 7 5 6 7 9 9 10 12 11 10
5 5 3 4 3 3 2 2 6 6 1 3 2 8 10 11 12 13 15 15 6 7 12 13 14 16 15 15 17 14 11 12 11 10 9 8 7 8 7 8 10 12 10 12
10 5 1 2 2 6 2 3 4 5 6 4 5 12 14 13 14 15 6 5 12 19 17 12 13 16 17 17 19 15 16 16 16 16 14 12 11 11 11 12 12 11 10 12
5 3 3 2 2 4 3 4 6 2 8 3 6 9 11 13 12 15 8 16 20 20 17 17 23 15 16 20 17 19 19 17 16 14 13 11 10 10 11 10 11 12 13 15
1 2 5 3 4 6 2 7 7 3 3 6 7 10 11 14 16 23 20 21 21 22 18 21 16 18 19 17 18 18 17 19 16 13 13 15 15 15 16 16 15 15 15 16
3 0 1 1 3 6 1 5 3 3 5 7 12 13 16 19 21 20 21 23 22 17 20 24 16 18 18 14 15 20 22 20 19 18 18 18 18 15 14 17 18 19 17 17
1 3 4 7 5 2 2 7 3 2 9 13 15 16 19 22 19 22 24 18 18 20 19 15 16 18 19 19 17 20 20 18 19 20 20 20 21 21 20 19 17 15 18 17
5 2 1 3 0 3 11 2 2 8 13 14 16 19 19 22 21 22 18 19 18 17 18 17 18 19 20 18 18 19 20 20 19 19 20 19 18 18 17 14 14 15 16 16
5 4 2 5 4 8 2 8 12 14 17 16 17 19 21 22 24 14 18 20 17 17 17 16 17 18 20 19 19 20 20 19 18 19 20 19 16 20 20 20 19 18 20 19
2 2 3 5 3 5 11 11 15 17 17 18 21 21 19 22 20 19 18 17 16 17 17 17 19 19 21 20 20 20 19 19 19 18 16 16 16 16 17 16 17 30 28 28
Wind_Direction
18 98 218 226 203 224 243 224 250 268 271 238 242 270 275 281 300 306 307 296 288 280 277 291 260 229 259 216 176 177 158 164 148 136 131 126 196 182 147 188 177 195 192 161
21 240 238 221 210 215 227 247 265 276 261 202 268 271 264 250 240 242 278 291 269 266 284 282 250 236 211 207 199 193 183 160 152 133 146 148 153 197 189 183 209 211 222 206
188 243 207 196 269 253 251 218 256 245 264 266 280 280 264 278 252 264 262 252 272 258 270 256 235 221 233 223 199 190 182 171 160 148 123 97 94 105 123 219 207 200 190 223
226 250 241 268 232 195 259 211 235 246 217 255 164 275 239 254 262 238 264 271 260 261 267 269 243 225 207 227 185 170 169 167 166 156 152 159 165 172 223 168 152 220 171 201
235 205 199 228 248 183 236 239 231 248 235 131 258 288 262 195 264 269 250 253 264 259 251 260 253 234 215 196 186 179 164 158 155 151 152 153 167 168 173 234 298 256 167 184
243 217 176 231 259 239 300 313 329 37 108 249 246 234 241 231 233 258 259 266 252 267 278 263 265 249 202 176 167 170 161 165 164 155 154 159 174 185 190 217 237 260 287 287
253 254 251 209 267 291 149 69 318 312 296 272 245 264 257 246 264 250 250 264 264 256 261 311 307 234 184 172 173 177 163 164 177 159 156 168 186 188 207 220 222 258 288 288
210 291 222 200 192 212 221 166 185 257 246 278 311 252 250 234 262 272 288 268 249 244 208 151 139 169 163 94 357 158 160 161 176 170 182 187 194 192 199 208 203 213 213 233
293 257 305 318 262 128 239 212 212 268 269 298 230 300 313 317 328 357 347 357 315 239 241 161 140 159 149 179 187 193 184 199 190 193 185 194 190 188 202 214 206 220 216 220
271 296 256 294 359 276 200 181 353 357 287 261 245 248 231 343 342 338 342 340 334 329 324 68 121 179 188 179 223 312 242 193 194 198 197 193 197 200 211 181 206 208 226 232
198 190 269 43 220 225 267 123 94 314 180 261 279 255 205 233 266 325 321 317 319 300 301 300 357 167 150 182 187 197 230 269 224 205 201 190 200 201 202 200 206 208 202 209
114 204 228 242 238 257 259 225 173 196 215 237 288 259 274 302 297 340 308 312 312 308 292 287 272 217 187 180 194 201 213 225 244 258 211 200 204 201 201 209 214 206 211 203
342 346 309 317 341 25 73 91 85 121 136 204 245 260 323 310 294 266 254 266 285 318 305 292 259 256 281 252 202 202 212 232 222 221 218 260 226 195 205 211 214 202 210 219
5 217 225 247 254 260 296 284 237 193 226 263 230 284 283 279 275 295 307 323 313 310 293 275 275 280 268 262 244 251 242 229 229 222 219 212 214 231 212 209 207 206 207 211
120 233 234 256 278 264 255 252 253 256 243 225 275 262 309 329 317 317 303 319 318 326 336 345 340 340 339 347 324 263 201 179 231 246 241 230 228 220 237 222 209 207 202 209
202 257 263 274 269 260 263 261 258 252 255 253 271 283 232 295 310 325 327 336 328 342 348 346 344 340 334 332 324 326 317 307 330 300 274 252 224 213 210 222 226 220 206 209
198 196 258 259 287 315 283 247 280 283 41 273 270 326 347 331 322 319 326 322 302 329 334 330 327 324 323 322 318 310 306 307 295 271 269 253 248 231 219 213 208 217 218 214
193 172 175 263 359 238 233 39 79 359 114 343 346 349 316 304 306 306 298 287 300 316 319 315 316 316 312 310 304 292 288 289 281 270 261 248 241 238 232 216 218 221 216 214
188 152 196 183 202 295 217 46 43 2 302 75 346 316 315 317 312 296 275 350 316 318 307 294 297 293 292 299 295 288 287 278 270 265 256 240 231 235 233 232 230 225 223 224
77 78 150 104 198 244 236 360 334 319 247 92 331 297 307 319 296 294 305 304 293 289 291 307 294 286 285 285 277 276 274 268 260 260 256 253 245 235 232 231 233 231 228 230
151 47 174 169 247 287 85 304 317 273 264 317 331 303 289 286 275 287 294 295 291 292 295 293 284 290 277 273 272 268 269 265 267 264 261 253 250 249 251 252 247 248 240 233
136 246 201 129 239 260 91 326 227 253 306 307 297 284 287 285 291 294 299 293 288 292 294 288 283 281 284 280 280 276 269 268 266 266 263 259 255 247 246 249 250 245 237 229
337 167 211 182 229 207 183 242 237 311 281 307 301 295 292 292 299 304 293 306 301 297 288 285 283 283 277 272 268 271 271 269 267 261 259 259 255 250 246 241 240 238 233 233
325 26 250 333 258 295 296 243 291 312 308 296 291 288 289 292 291 300 305 301 295 288 290 287 288 280 277 274 272 267 269 268 267 265 262 261 260 256 248 244 241 237 233 227
217 353 356 280 308 326 116 328 304 309 306 302 299 298 301 305 301 295 303 301 291 292 290 286 284 282 280 279 275 272 270 267 264 260 257 257 249 243 240 232 226 224 224 222
167 187 141 247 265 246 281 303 311 306 306 304 301 306 305 306 302 312 293 297 295 291 293 289 287 283 280 280 278 277 275 272 266 258 254 248 249 249 244 238 233 226 224 212